STARLINK-1019, 44724

Orbit data source: Space-Track

STARLINK-1019, 44724 is a payload satellite owned by SpaceX/Seattle (US) in LEO that was launched on Mon, 11 Nov 2019 UTC via an FALCON 9 launch vehicle from the Air Force Eastern Test Range (AFETR). Payload-class satellites include a variety of spacecraft equipped with specific instruments for various scientific and technological missions. These include communications satellites like Starlink; space stations such as the ISS; scientific satellites like the Hubble; Earth observation satellites from companies like Planet Labs, Umbra, and HawkEye 360; GPS; miniature CubeSats for education and research; and military/defense satellites.

Loading next visibility...
Identifier
44724, 2019-074M
Orbit
LEO
Country
Flag of USUS
Related business
Manufacturer
SpaceX/Seattle
Mission
Operational Commercial Communications
Bus & Motor
STARLINK, Unknown motor
Mass
260 kg wet, ~248 kg dry
Launch date (UTC)
2019-11-11 (6 years ago)
Launch vehicle
FALCON 9
Launch site
Air Force Eastern Test Range (AFETR)
Object type
Payload
Rocket body
Debris
Shape & HBR
Box + 1 Pan, 10.1 m
Radar Cross Section
13.562 m², Large (>1 m²)

Expand to show TLE details & history
Last TLE update: 13 hours ago

TLE from 13 hours ago
0 STARLINK-1019
1 44724U 19074M   25286.58805082 -.00000206  00000-0  51006-5 0  9997
2 44724  53.0538 126.9851 0001739  94.3783 265.7405 15.06402405326572
Epoch: 2025-10-13T14:06Z
TLE epoch observation values (Epoch: 2025-10-13T14:06:47.590Z)
Latitude
-0.00002°
Longitude
-107.10188°
Altitude
548.173 km
Speed
7.589 km/s
True Right ascension
08h 27m 56s
True Declination
0° 00' 00"
Sunlit
Object was in daylight at epoch
Visualization orbit readout
Latitude
Unknown
Longitude
Unknown
Altitude
Unknown
Speed
Unknown
Apparent Right ascension
Unknown
Apparent Declination
Unknown
Sunlit
N/A
Visualization observer readout
Local Sidereal Time
21:23:26
Azimuth
Unknown
Elevation
Unknown
Doppler factor
Unknown
Orbital elements
Apogee altitude
548.679 km
Perigee altitude
546.271 km
Semi-major axis
6,925.612 km
Eccentricity
0.00017
Inclination
53.0538°
RAAN
126.9851°
Arg. of periapsis
94.3783°
True anomaly
265.72063°
Mean anomaly
265.7405°
Eccentric anomaly
265.73056°
Mean motion
3.76579 °/min
Orbital period
95.6 mins
BSTAR
0.0000051006
Loading maneuver chart data...
Computing Atmospheric mass density...
Loading historical data...
Loading historical data...
Loading historical data...
Loading historical data...
Loading historical data...
Loading historical data...
Loading historical data...

Documentation

Showing up to 5 results
|